Location: North Bay Shore
(40.7362°N, 73.2626°W)
Time: 09:54:36
(UTC+00:00)

SKYMED 2 - Pass Details

Date: 29 October 2020
Orbit: 621 x 623 km, 97.9° (Epoch: 24 November)

Event Time Altitude Azimuth Distance (km) Brightness Sun altitude
Rises 22:43:05 0° 16° (NNE) 2,910 6.8 -10.2°
Reaches altitude 10° 22:45:19 10° 20° (NNE) 1,999 5.9 -10.6°
Maximum altitude 22:49:36 59° 100° (E) 724 3.6 -11.4°
Drops below altitude 10° 22:53:52 10° 181° (S) 1,983 6.3 -12.2°
Sets 22:56:04 0° 185° (S) 2,884 7.2 -12.6°
